Flag for Tunisia Weather past 2 weeks in Kairouan, Tunisia

Now
75 °F

Scattered clouds.


Feels Like: 77 °F
Forecast: 60 / 73 °F
Wind: 14 mph from Northwest

Location: Kairouan Airport

Current Time: Oct 23, 2014 at 4:16:15 PM

Latest Report: Oct 23, 2014 at 3:00 PM


Visibility: N/A

Pressure: 29.95 "Hg

Humidity: 34%

Dew point: 45 °F

Location of KairouanLocation

Historic Weather in Kairouan — Graph

°F

Kairouan temperature yesterday

Maximum temperature yesterday: 84 °F (at 12:00 PM)
Minimum temperature yesterday: 64 °F (at 5:00 AM)
Average temperature yesterday: 73 °F

Past Weeks' High & Low Weather Summary

 TemperatureHumidityPressure
High95 °F (Oct 10, 3:00 PM)94% (Oct 10, 6:00 AM)30.24 "Hg (Oct 10, 6:00 AM)
Low63 °F (Oct 19, 7:00 AM)18% (Oct 14, 5:00 PM)29.74 "Hg (Oct 14, 8:00 PM)
Average77 °F60%30.04 "Hg
* Reported Oct 8 3:00 PM — Oct 23 3:00 PM, Kairouan, Weather by CustomWeather, © 2014

Note: Actual official high and low records may vary slightly from our data, if they occured in-between our weather recording intervals... More about our weather records

Advertising

Kairouan weather history for previous 24 hours

 ConditionsComfort  
Time TempWeatherWind HumidityBarometerVisibility
3:00 PM
Oct 23
75 °FScattered clouds.14 mph34%29.95 "HgN/A
2:00 PM75 °FScattered clouds.9 mph31%29.95 "HgN/A
1:00 PM75 °FScattered clouds.8 mph31%29.98 "HgN/A
12:00 PM73 °FScattered clouds.9 mph31%30.01 "HgN/A
11:00 AM72 °FScattered clouds.12 mph33%30.01 "HgN/A
10:00 AM72 °FScattered clouds.9 mph38%30.04 "HgN/A
9:00 AM70 °FScattered clouds.5 mph43%30.04 "HgN/A
8:00 AM66 °FPassing clouds.2 mph49%30.04 "HgN/A
6:00 AM66 °FPassing clouds.10 mph49%29.98 "HgN/A
5:00 AM66 °FPassing clouds.9 mph52%29.98 "HgN/A
4:00 AM66 °FPassing clouds.9 mph52%29.98 "HgN/A
3:00 AM66 °FPassing clouds.13 mph52%30.01 "HgN/A
2:00 AM68 °FPassing clouds.13 mph53%29.98 "HgN/A
1:00 AM68 °FClear.3 mph49%30.01 "Hg10 mi
12:00 AM68 °FClear.6 mph49%30.01 "Hg10 mi
11:00 PM
Oct 22
68 °FClear.5 mph49%30.01 "Hg10 mi
10:00 PM70 °FPassing clouds.9 mph43%29.98 "HgN/A
9:00 PM70 °FPassing clouds.12 mph46%29.98 "HgN/A
8:00 PM72 °FPassing clouds.7 mph44%29.98 "HgN/A
7:00 PM73 °FPassing clouds.10 mph38%29.98 "HgN/A
6:00 PM75 °FPassing clouds.9 mph41%29.95 "HgN/A
5:00 PM75 °FScattered clouds.10 mph44%29.95 "HgN/A
4:00 PM79 °FScattered clouds.12 mph39%29.95 "HgN/A
Weather by CustomWeather, © 2014

See weather overviewHow to use our weather pages